Flag for U.S.A. Weather past 2 weeks in Hollywood, California, U.S.A.

Now
56 °F

Clear.


Feels Like: 56 °F
Forecast: 51 / 73 °F
Wind: No wind

Location: Van Nuys Airport

Current Time: Feb 1, 2015 at 1:17:08 AM

Latest Report: Feb 1, 2015 at 12:51 AM


Visibility: 10 mi

Pressure: 29.99 "Hg

Humidity: 60%

Dew point: 42 °F

Location of HollywoodLocation

Historic Weather in Hollywood — Graph

°F

Hollywood temperature yesterday

Maximum temperature yesterday: 72 °F (at 2:51 PM)
Minimum temperature yesterday: 52 °F (at 6:51 AM)
Average temperature yesterday: 61 °F

Past Weeks' High & Low Weather Summary

 TemperatureHumidityPressure
High80 °F (Jan 25, 12:51 PM)97% (Jan 21, 9:51 AM)30.24 "Hg (Jan 21, 9:51 AM)
Low47 °F (Jan 19, 5:51 AM)11% (Jan 23, 11:51 AM)29.81 "Hg (Jan 30, 1:51 PM)
Average62 °F49%30.05 "Hg
* Reported Jan 16 11:51 PM — Jan 31 11:51 PM, Hollywood, Weather by CustomWeather, © 2014

Note: Actual official high and low records may vary slightly from our data, if they occured in-between our weather recording intervals... More about our weather records

Advertising

Hollywood weather history for previous 24 hours

 ConditionsComfort  
Time TempWeatherWind HumidityBarometerVisibility
11:51 PM
Jan 31
57 °FClear.3 mph64%29.99 "Hg10 mi
10:51 PM56 °FClear.No wind77%29.99 "Hg10 mi
9:51 PM58 °FClear.5 mph72%29.98 "Hg10 mi
8:51 PM60 °FClear.3 mph60%29.96 "Hg10 mi
7:51 PM63 °FClear.5 mph50%29.93 "Hg10 mi
6:51 PM67 °FClear.10 mph36%29.91 "Hg10 mi
5:51 PM68 °FClear.9 mph35%29.89 "Hg10 mi
4:51 PM70 °FSunny.8 mph32%29.87 "Hg10 mi
3:51 PM72 °FSunny.16 mph30%29.87 "Hg10 mi
2:51 PM72 °FSunny.20 mph30%29.86 "Hg10 mi
1:51 PM71 °FSunny.23 mph32%29.85 "Hg10 mi
12:51 PM71 °FScattered clouds.10 mph32%29.86 "Hg10 mi
11:51 AM69 °FSunny.6 mph47%29.88 "Hg10 mi
10:51 AM66 °FSunny.5 mph52%29.90 "Hg10 mi
9:51 AM59 °FScattered clouds.No wind81%29.91 "Hg6 mi
8:51 AM56 °FFog.No wind87%29.90 "Hg6 mi
7:51 AM53 °FFog.No wind89%29.88 "Hg6 mi
6:51 AM52 °FClear.No wind93%29.86 "Hg8 mi
5:51 AM54 °FMostly cloudy.No wind86%29.84 "Hg10 mi
4:51 AM55 °FMostly cloudy.No wind83%29.82 "Hg10 mi
3:51 AM56 °FFog.No wind90%29.82 "Hg6 mi
2:51 AM56 °FLow clouds.No wind90%29.83 "Hg9 mi
1:58 AM56 °FOvercast.3 mph90%29.85 "Hg8 mi
Weather by CustomWeather, © 2014

See weather overviewHow to use our weather pages